STARLINK-31794, 59803

Orbit data source: Space-Track

STARLINK-31794, 59803 is a payload satellite owned by SpaceX/Seattle (US) in LEO that was launched on Sat, 18 May 2024 UTC via an FALCON 9 launch vehicle from the Air Force Eastern Test Range (AFETR). Payload-class satellites include a variety of spacecraft equipped with specific instruments for various scientific and technological missions. These include communications satellites like Starlink; space stations such as the ISS; scientific satellites like the Hubble; Earth observation satellites from companies like Planet Labs, Umbra, and HawkEye 360; GPS; miniature CubeSats for education and research; and military/defense satellites.

Loading next visibility...
Identifier
59803, 2024-093X
Orbit
LEO
Country
Flag of USUS
Related business
Manufacturer
SpaceX/Seattle
Mission
Operational spacecraft
Bus & Motor
STARLINK V2M, Unknown motor
Mass
730 kg wet, ~700 kg dry
Launch date (UTC)
2024-05-18 (2 years ago)
Launch vehicle
FALCON 9
Launch site
Air Force Eastern Test Range (AFETR)
Object type
Payload
Rocket body
Debris
Shape & HBR
Unknown shape, 17.7 m
Radar Cross Section
Large (>1 m²)

Expand to show TLE details & history
Last TLE update: 19 hours ago

TLE from 19 hours ago
0 STARLINK-31794
1 59803U 24093X   25340.78613464  .00004160  00000-0  16059-3 0  9991
2 59803  43.0021  13.8575 0001474 269.4916  90.5767 15.27585533 88553
Epoch: 2025-12-06T18:52Z
TLE epoch observation values (Epoch: 2025-12-06T18:52:02.032Z)
Latitude
-0.00002°
Longitude
15.04013°
Altitude
482.818 km
Speed
7.626 km/s
True Right ascension
00h 55m 25s
True Declination
0° 00' 00"
Sunlit
Object was in full shadow at epoch
Visualization orbit readout
Latitude
Unknown
Longitude
Unknown
Altitude
Unknown
Speed
Unknown
Apparent Right ascension
Unknown
Apparent Declination
Unknown
Sunlit
N/A
Visualization observer readout
Local Sidereal Time
11:43:49
Azimuth
Unknown
Elevation
Unknown
Doppler factor
Unknown
Orbital elements
Apogee altitude
485.989 km
Perigee altitude
483.966 km
Semi-major axis
6,863.114 km
Eccentricity
0.00015
Inclination
43.0021°
RAAN
13.8575°
Arg. of periapsis
269.4916°
True anomaly
90.59359°
Mean anomaly
90.5767°
Eccentric anomaly
90.58514°
Mean motion
3.81734 °/min
Orbital period
94.31 mins
BSTAR
0.00016059
Loading maneuver chart data...
Computing Atmospheric mass density...
Loading historical data...
Loading historical data...
Loading historical data...
Loading historical data...
Loading historical data...
Loading historical data...
Loading historical data...

Documentation

Showing up to 5 results
|